Location: St Paul
(33.9360°N, 83.4200°W)
Time: 16:43:07
(UTC-05:00)

Cosmos 1733 - Pass Details

Date: 06 October 2017
Orbit: 506 x 526 km, 82.5° (Epoch: 16 December)

Event Time Altitude Azimuth Distance (km) Brightness Sun altitude
Rises 19:47:32 0° 179° (S) 2,603 6.8 -8.4°
Reaches altitude 10° 19:49:39 10° 176° (S) 1,725 5.8 -8.9°
Maximum altitude 19:53:24 65° 95° (E) 566 3.1 -9.7°
Drops below altitude 10° 19:57:12 10° 13° (NNE) 1,749 5.8 -10.4°
Sets 19:59:22 0° 10° (N) 2,644 6.7 -10.9°
